2021-02-17 00:07:36 r, 20.40m,0000000001Hz,0000791360c,0000001.717s,-009.1C,00002191
2021-02-17 00:17:36 r, 20.40m,0000000001Hz,0000792931c,0000001.721s,-009.1C,00002191
2021-02-17 00:27:37 r, 20.40m,0000000000Hz,0000794609c,0000001.724s,-009.4C,00002191
2021-02-17 00:37:38 r, 20.40m,0000000001Hz,0000792088c,0000001.719s,-009.7C,00002191
2021-02-17 00:47:36 r, 20.40m,0000000000Hz,0000792574c,0000001.720s,-009.7C,00002191
2021-02-17 00:57:38 r, 20.40m,0000000001Hz,0000793885c,0000001.723s,-009.7C,00002191
2021-02-17 01:07:37 r, 20.40m,0000000000Hz,0000792760c,0000001.720s,-010.0C,00002191
2021-02-17 01:17:36 r, 20.40m,0000000000Hz,0000789985c,0000001.714s,-010.0C,00002191
2021-02-17 01:27:38 r, 20.40m,0000000000Hz,0000790995c,0000001.717s,-010.4C,00002191
2021-02-17 01:37:37 r, 20.40m,0000000000Hz,0000788242c,0000001.711s,-010.4C,00002191
2021-02-17 01:47:36 r, 20.40m,0000000001Hz,0000786397c,0000001.707s,-010.4C,00002191
2021-02-17 01:57:37 r, 20.40m,0000000001Hz,0000783732c,0000001.701s,-010.4C,00002191
2021-02-17 02:07:37 r, 20.39m,0000000000Hz,0000782255c,0000001.698s,-010.4C,00002191
2021-02-17 02:17:36 r, 20.39m,0000000001Hz,0000779403c,0000001.691s,-010.4C,00002191
2021-02-17 02:27:37 r, 20.38m,0000000000Hz,0000776574c,0000001.685s,-010.4C,00002191
2021-02-17 02:37:37 r, 20.38m,0000000001Hz,0000773707c,0000001.679s,-010.4C,00002191
2021-02-17 02:47:36 r, 20.37m,0000000001Hz,0000769799c,0000001.671s,-010.4C,00002191
2021-02-17 02:57:38 r, 20.37m,0000000001Hz,0000769667c,0000001.670s,-010.4C,00002191
2021-02-17 03:07:37 r, 20.37m,0000000000Hz,0000766270c,0000001.663s,-010.4C,00002191
2021-02-17 03:17:36 r, 20.37m,0000000001Hz,0000763293c,0000001.656s,-010.4C,00002191
2021-02-17 03:27:38 r, 20.37m,0000000001Hz,0000763206c,0000001.656s,-010.0C,00002191
2021-02-17 03:37:37 r, 20.36m,0000000001Hz,0000760471c,0000001.650s,-010.0C,00002191
2021-02-17 03:47:36 r, 20.35m,0000000001Hz,0000755231c,0000001.639s,-010.0C,00002191
2021-02-17 03:57:36 r, 20.35m,0000000000Hz,0000756611c,0000001.642s,-010.0C,00002191
2021-02-17 04:07:37 r, 20.36m,0000000001Hz,0000758361c,0000001.646s,-010.0C,00002191
2021-02-17 04:17:36 r, 20.35m,0000000001Hz,0000757379c,0000001.644s,-010.0C,00002191
2021-02-17 04:27:37 r, 20.36m,0000000001Hz,0000760217c,0000001.650s,-010.0C,00002191
2021-02-17 04:37:36 r, 20.35m,0000000000Hz,0000756362c,0000001.641s,-010.0C,00002191
2021-02-17 04:47:36 r, 20.36m,0000000000Hz,0000758163c,0000001.645s,-010.4C,00002191
2021-02-17 04:57:37 r, 20.35m,0000000000Hz,0000757038c,0000001.643s,-010.7C,00002191
2021-02-17 05:07:38 r, 20.35m,0000000001Hz,0000750541c,0000001.629s,-011.0C,00002191
2021-02-17 05:17:36 r, 20.34m,0000000000Hz,0000745916c,0000001.619s,-011.0C,00002191
2021-02-17 05:27:38 r, 20.34m,0000000001Hz,0000742807c,0000001.612s,-011.3C,00002191
2021-02-17 05:37:37 r, 20.33m,0000000001Hz,0000734375c,0000001.594s,-011.3C,00002191
2021-02-17 05:47:36 r, 20.30m,0000000000Hz,0000720821c,0000001.564s,-011.7C,00002191
2021-02-17 05:57:36 r, 20.29m,0000000001Hz,0000709993c,0000001.541s,-011.7C,00002191
2021-02-17 06:07:37 r, 20.20m,0000000001Hz,0000656283c,0000001.424s,-011.7C,00002191
2021-02-17 06:17:36 r, 19.88m,0000000001Hz,0000488522c,0000001.060s,-011.7C,00002191
2021-02-17 06:27:36 r, 19.04m,0000000002Hz,0000226880c,0000000.492s,-011.7C,00002191
2021-02-17 06:37:38 r, 17.70m,0000000007Hz,0000066475c,0000000.144s,-011.7C,00002191
2021-02-17 06:47:36 r, 16.04m,0000000032Hz,0000014279c,0000000.031s,-011.3C,00002191
2021-02-17 06:57:36 r, 14.06m,0000000201Hz,0000000000c,0000000.000s,-011.0C,00002191
2021-02-17 07:07:38 r, 11.91m,0000001462Hz,0000000000c,0000000.000s,-011.0C,00002191
2021-02-17 07:17:36 r, 09.91m,0000009213Hz,0000000000c,0000000.000s,-011.0C,00002191
2021-02-17 07:27:36 r, 08.36m,0000038231Hz,0000000000c,0000000.000s,-011.0C,00002191
2021-02-17 07:37:36 r, 07.30m,0000101427Hz,0000000000c,0000000.000s,-011.0C,00002191
2021-02-17 07:47:37 r, 06.58m,0000198579Hz,0000000000c,0000000.000s,-011.0C,00002191
2021-02-17 07:57:36 r, 06.05m,0000323083Hz,0000000000c,0000000.000s,-010.7C,00002191
2021-02-17 08:07:38 r, 00.00m,0000480211Hz,0000000000c,0000000.000s,-010.0C,00002191
2021-02-17 08:17:37 r, 00.00m,0000600031Hz,0000000000c,0000000.000s,-009.1C,00002191
2021-02-17 08:27:36 r, 00.00m,0000599514Hz,0000000000c,0000000.000s,-008.1C,00002191
2021-02-17 08:37:36 r, 00.00m,0000599302Hz,0000000000c,0000000.000s,-007.1C,00002191
2021-02-17 08:47:38 r, 00.00m,0000599296Hz,0000000000c,0000000.000s,-006.2C,00002191
2021-02-17 08:57:36 r, 00.00m,0000599192Hz,0000000000c,0000000.000s,-005.2C,00002191
2021-02-17 09:07:38 r, 00.00m,0000599061Hz,0000000000c,0000000.000s,-003.9C,00002191
2021-02-17 09:17:37 r, 00.00m,0000599013Hz,0000000000c,0000000.000s,-003.0C,00002191
2021-02-17 09:27:36 r, 00.00m,0000599032Hz,0000000000c,0000000.000s,-001.7C,00002191
2021-02-17 09:37:38 r, 00.00m,0000598995Hz,0000000000c,0000000.000s,-000.4C,00002191
2021-02-17 09:47:36 r, 00.00m,0000598815Hz,0000000000c,0000000.000s, 000.6C,00002191
2021-02-17 09:57:36 r, 00.00m,0000598674Hz,0000000000c,0000000.000s, 001.2C,00002191
2021-02-17 10:07:37 r, 00.00m,0000598528Hz,0000000000c,0000000.000s, 002.2C,00002191
2021-02-17 10:17:37 r, 00.00m,0000598557Hz,0000000000c,0000000.000s, 003.2C,00002191
2021-02-17 10:27:36 r, 00.00m,0000598496Hz,0000000000c,0000000.000s, 004.1C,00002191
2021-02-17 10:37:37 r, 00.00m,0000598444Hz,0000000000c,0000000.000s, 004.5C,00002191
2021-02-17 10:47:36 r, 00.00m,0000598358Hz,0000000000c,0000000.000s, 005.1C,00002191
2021-02-17 10:57:36 r, 00.00m,0000598299Hz,0000000000c,0000000.000s, 006.4C,00002191
2021-02-17 11:07:36 r, 00.00m,0000598132Hz,0000000000c,0000000.000s, 007.4C,00002191
2021-02-17 11:17:38 r, 00.00m,0000597957Hz,0000000000c,0000000.000s, 008.0C,00002191
2021-02-17 11:27:36 r, 00.00m,0000598092Hz,0000000000c,0000000.000s, 007.7C,00002191
2021-02-17 11:37:38 r, 00.00m,0000598005Hz,0000000000c,0000000.000s, 008.0C,00002191
2021-02-17 11:47:36 r, 00.00m,0000598034Hz,0000000000c,0000000.000s, 008.0C,00002191
2021-02-17 11:57:36 r, 00.00m,0000597980Hz,0000000000c,0000000.000s, 008.0C,00002191
2021-02-17 12:07:38 r, 00.00m,0000597947Hz,0000000000c,0000000.000s, 008.7C,00002191
2021-02-17 12:17:37 r, 00.00m,0000597931Hz,0000000000c,0000000.000s, 009.3C,00002191
2021-02-17 12:27:36 r, 00.00m,0000597940Hz,0000000000c,0000000.000s, 009.9C,00002191
2021-02-17 12:37:36 r, 00.00m,0000597811Hz,0000000000c,0000000.000s, 010.3C,00002191
2021-02-17 12:47:37 r, 00.00m,0000597747Hz,0000000000c,0000000.000s, 010.9C,00002191
2021-02-17 12:57:36 r, 00.00m,0000597707Hz,0000000000c,0000000.000s, 010.9C,00002191
2021-02-17 13:07:38 r, 00.00m,0000597709Hz,0000000000c,0000000.000s, 010.9C,00002191
2021-02-17 13:17:36 r, 00.00m,0000597657Hz,0000000000c,0000000.000s, 010.9C,00002191
2021-02-17 13:27:36 r, 00.00m,0000598039Hz,0000000000c,0000000.000s, 007.7C,00002191
2021-02-17 13:37:38 r, 00.00m,0000598294Hz,0000000000c,0000000.000s, 004.8C,00002191
2021-02-17 13:47:37 r, 00.00m,0000598502Hz,0000000000c,0000000.000s, 003.5C,00002191
2021-02-17 13:57:36 r, 00.00m,0000598624Hz,0000000000c,0000000.000s, 002.9C,00002191
2021-02-17 14:07:38 r, 00.00m,0000598546Hz,0000000000c,0000000.000s, 002.5C,00002191
2021-02-17 14:17:36 r, 00.00m,0000598460Hz,0000000000c,0000000.000s, 002.9C,00002191
2021-02-17 14:27:36 r, 00.00m,0000598364Hz,0000000000c,0000000.000s, 004.1C,00002191
2021-02-17 14:37:37 r, 00.00m,0000598114Hz,0000000000c,0000000.000s, 006.1C,00002191
2021-02-17 14:47:37 r, 00.00m,0000598096Hz,0000000000c,0000000.000s, 007.0C,00002191
2021-02-17 14:57:36 r, 00.00m,0000597988Hz,0000000000c,0000000.000s, 008.0C,00002191
2021-02-17 15:07:37 r, 00.00m,0000597964Hz,0000000000c,0000000.000s, 008.3C,00002191
2021-02-17 15:17:36 r, 00.00m,0000597976Hz,0000000000c,0000000.000s, 008.7C,00002191
2021-02-17 15:27:36 r, 00.00m,0000597961Hz,0000000000c,0000000.000s, 008.3C,00002191
2021-02-17 15:37:36 r, 00.00m,0000598019Hz,0000000000c,0000000.000s, 008.0C,00002191
2021-02-17 15:47:38 r, 00.00m,0000598151Hz,0000000000c,0000000.000s, 008.0C,00002191
2021-02-17 15:57:36 r, 00.00m,0000598068Hz,0000000000c,0000000.000s, 008.3C,00002191
2021-02-17 16:07:38 r, 00.00m,0000598029Hz,0000000000c,0000000.000s, 008.0C,00002191
2021-02-17 16:17:36 r, 00.00m,0000598163Hz,0000000000c,0000000.000s, 007.7C,00002191
2021-02-17 16:27:36 r, 00.00m,0000598078Hz,0000000000c,0000000.000s, 007.4C,00002191
2021-02-17 16:37:38 r, 00.00m,0000598341Hz,0000000000c,0000000.000s, 006.7C,00002191
2021-02-17 16:47:36 r, 00.00m,0000598355Hz,0000000000c,0000000.000s, 006.4C,00002191
2021-02-17 16:57:36 r, 00.00m,0000581840Hz,0000000000c,0000000.000s, 005.8C,00002191
2021-02-17 17:07:36 r, 00.00m,0000486260Hz,0000000000c,0000000.000s, 004.8C,00002191
2021-02-17 17:17:37 r, 05.89m,0000372504Hz,0000000000c,0000000.000s, 004.1C,00002191
2021-02-17 17:27:36 r, 06.30m,0000254740Hz,0000000000c,0000000.000s, 002.9C,00002191
2021-02-17 17:37:37 r, 06.77m,0000166125Hz,0000000000c,0000000.000s, 001.6C,00002191
2021-02-17 17:47:36 r, 07.44m,0000089531Hz,0000000000c,0000000.000s, 000.1C,00002191
2021-02-17 17:57:36 r, 08.46m,0000034983Hz,0000000000c,0000000.000s,-001.0C,00002191
2021-02-17 18:07:36 r, 09.99m,0000008534Hz,0000000000c,0000000.000s,-002.0C,00002191
2021-02-17 18:17:38 r, 12.01m,0000001329Hz,0000000000c,0000000.000s,-002.6C,00002191
2021-02-17 18:27:36 r, 14.18m,0000000179Hz,0000000000c,0000000.000s,-003.3C,00002191
2021-02-17 18:37:38 r, 16.21m,0000000028Hz,0000016754c,0000000.036s,-003.6C,00002191
2021-02-17 18:47:36 r, 17.77m,0000000006Hz,0000070226c,0000000.152s,-003.9C,00002191
2021-02-17 18:57:36 r, 18.86m,0000000003Hz,0000189977c,0000000.412s,-004.2C,00002191
2021-02-17 19:07:38 r, 19.40m,0000000001Hz,0000314957c,0000000.684s,-004.9C,00002191
2021-02-17 19:17:36 r, 19.61m,0000000001Hz,0000379927c,0000000.824s,-004.9C,00002191
2021-02-17 19:27:36 r, 19.69m,0000000001Hz,0000407772c,0000000.885s,-004.9C,00002191
2021-02-17 19:37:36 r, 19.73m,0000000001Hz,0000423240c,0000000.918s,-004.9C,00002191
2021-02-17 19:47:37 r, 19.76m,0000000001Hz,0000435687c,0000000.946s,-004.9C,00002191
2021-02-17 19:57:36 r, 19.78m,0000000001Hz,0000445653c,0000000.967s,-004.9C,00002191
2021-02-17 20:07:37 r, 19.81m,0000000001Hz,0000456883c,0000000.991s,-004.9C,00002191
2021-02-17 20:17:36 r, 19.83m,0000000001Hz,0000466410c,0000001.012s,-004.9C,00002191
2021-02-17 20:27:36 r, 19.86m,0000000001Hz,0000477115c,0000001.035s,-004.9C,00002191
2021-02-17 20:37:36 r, 19.88m,0000000001Hz,0000484905c,0000001.052s,-004.9C,00002191
2021-02-17 20:47:38 r, 19.90m,0000000001Hz,0000494407c,0000001.073s,-004.9C,00002191
2021-02-17 20:57:36 r, 19.92m,0000000001Hz,0000504591c,0000001.095s,-004.9C,00002191
2021-02-17 21:07:38 r, 19.94m,0000000001Hz,0000514517c,0000001.117s,-004.9C,00002191
2021-02-17 21:17:36 r, 19.96m,0000000001Hz,0000524184c,0000001.138s,-004.9C,00002191
2021-02-17 21:27:36 r, 19.98m,0000000001Hz,0000532807c,0000001.156s,-004.9C,00002191
2021-02-17 21:37:36 r, 19.99m,0000000001Hz,0000540634c,0000001.173s,-004.9C,00002191
2021-02-17 21:47:37 r, 20.00m,0000000001Hz,0000547023c,0000001.187s,-004.9C,00002191
2021-02-17 21:57:35 r, 20.02m,0000000001Hz,0000554143c,0000001.203s,-004.9C,00002191
2021-02-17 22:07:37 r, 20.05m,0000000001Hz,0000571153c,0000001.239s,-004.9C,00002191
2021-02-17 22:17:36 r, 20.01m,0000000000Hz,0000552302c,0000001.199s,-005.2C,00002191
2021-02-17 22:27:36 r, 19.96m,0000000001Hz,0000524081c,0000001.137s,-005.5C,00002191
2021-02-17 22:37:36 r, 19.86m,0000000001Hz,0000476029c,0000001.033s,-005.5C,00002191
2021-02-17 22:47:38 r, 19.80m,0000000001Hz,0000451206c,0000000.979s,-005.5C,00002191
2021-02-17 22:57:35 r, 19.79m,0000000001Hz,0000447051c,0000000.970s,-005.5C,00002191
2021-02-17 23:07:35 r, 19.90m,0000000001Hz,0000499421c,0000001.084s,-005.5C,00002191
2021-02-17 23:17:36 r, 19.99m,0000000001Hz,0000539385c,0000001.171s,-005.2C,00002191
2021-02-17 23:27:35 r, 19.99m,0000000001Hz,0000536751c,0000001.165s,-005.2C,00002191
2021-02-17 23:37:36 r, 19.90m,0000000001Hz,0000495537c,0000001.075s,-005.2C,00002191
2021-02-17 23:47:36 r, 19.82m,0000000001Hz,0000460608c,0000001.000s,-004.9C,00002191
2021-02-17 23:57:36 r, 19.80m,0000000001Hz,0000451010c,0000000.979s,-004.9C,00002191
